Weather History for KCKF - August, 2014

Change the Weather History Date:

Saturday, August 16, 2014

  Actual Average (KABY) Record (KABY)
Temperature  
Mean Temperature 81 °F 82 °F  
Max Temperature 96 °F 92 °F 102 °F (1995)
Min Temperature 66 °F 72 °F 59 °F (1967)
Degree Days  
Heating Degree Days 0 0  
Month to date heating degree days 0  
Since 1 June heating degree days 0  
Since 1 July heating degree days 0  
Cooling Degree Days 16 17  
Month to date cooling degree days 272  
Year to date cooling degree days 1718  
Since 1 June cooling degree days 1278  
Growing Degree Days 31 (Base 50)    
Moisture  
Dew Point 62 °F    
Average Humidity 58    
Maximum Humidity 92    
Minimum Humidity 25    
Precipitation  
Precipitation 0.00 in - 0.78 in (2013)
Sea Level Pressure  
Sea Level Pressure 30.02 in    
Wind  
Wind Speed 3 mph (West)    
Max Wind Speed 14 mph    
Max Gust Speed 20 mph    
Visibility 10 miles    
Events      
T = Trace of Precipitation, MM = Missing Value Source: NWS Daily Summary

Daily Weather History Graph

Daily Weather History Graph

Search for Another Location

Airport or City:

Trip Planner

Search our weather history database for the weather conditions in past years. The results will help you decide how hot, cold, wet, or windy it might be!

Date:

Astronomy

Aug. 16, 2014 Rise Set
Actual Time 7:00 AM EDT 8:17 PM EDT
Civil Twilight 6:34 AM EDT 8:43 PM EDT
Nautical Twilight 6:03 AM EDT 9:14 PM EDT
Astronomical Twilight 5:32 AM EDT 9:45 PM EDT
Moon No Moon Rise 1:19 PM EDT (8/16)
Length of Visible Light 14h 08m
Length of Day
13h 17m
Waning Gibbous, 59% of the Moon is Illuminated
Aug 16
Waning Gibbous
Aug 17
Last Quarter
Aug 25
New
Sep 2
First Quarter
Sep 8
Full

Hourly Weather History & Observations

Time (EDT) Temp. Heat Index Dew Point Humidity Pressure Visibility Wind Dir Wind Speed Gust Speed Precip Events Conditions
12:15 AM 74.1 °F - 65.3 °F 74% 29.99 in 10.0 mi Calm Calm - N/A   Clear
12:35 AM 72.0 °F - 65.5 °F 80% 29.99 in 10.0 mi NE 4.6 mph - N/A   Clear
12:55 AM 72.5 °F - 65.5 °F 79% 29.99 in 10.0 mi Calm Calm - N/A   Clear
1:15 AM 71.1 °F - 65.3 °F 82% 29.99 in 10.0 mi Calm Calm - N/A   Clear
1:35 AM 70.7 °F - 65.3 °F 83% 29.99 in 10.0 mi Calm Calm - N/A   Clear
1:55 AM 70.9 °F - 65.3 °F 82% 30.00 in 10.0 mi Calm Calm - N/A   Clear
2:15 AM 71.4 °F - 65.5 °F 81% 30.00 in 10.0 mi Calm Calm - N/A   Clear
2:35 AM 71.1 °F - 65.3 °F 82% 29.99 in 10.0 mi Calm Calm - N/A   Clear
2:55 AM 70.9 °F - 65.3 °F 82% 29.99 in 10.0 mi Calm Calm - N/A   Clear
3:15 AM 69.8 °F - 65.1 °F 85% 29.99 in 10.0 mi Calm Calm - N/A   Clear
3:35 AM 69.1 °F - 64.6 °F 86% 29.99 in 10.0 mi Calm Calm - N/A   Clear
3:55 AM 69.1 °F - 65.3 °F 88% 29.99 in 10.0 mi Calm Calm - N/A   Clear
4:15 AM 68.9 °F - 64.9 °F 87% 29.99 in 10.0 mi Calm Calm - N/A   Clear
4:35 AM 68.7 °F - 64.9 °F 88% 29.99 in 10.0 mi Calm Calm - N/A   Clear
4:55 AM 68.5 °F - 64.8 °F 88% 29.99 in 10.0 mi Calm Calm - N/A   Clear
5:15 AM 68.4 °F - 64.4 °F 87% 30.00 in 10.0 mi Calm Calm - N/A   Clear
5:35 AM 67.3 °F - 63.9 °F 89% 30.00 in 10.0 mi Calm Calm - N/A   Clear
5:55 AM 67.6 °F - 64.6 °F 90% 30.01 in 10.0 mi Calm Calm - N/A   Clear
6:15 AM 66.9 °F - 63.9 °F 90% 30.01 in 10.0 mi Calm Calm - N/A   Clear
6:35 AM 66.2 °F - 63.7 °F 92% 30.02 in 10.0 mi Calm Calm - N/A   Clear
6:55 AM 66.6 °F - 63.7 °F 90% 30.03 in 7.0 mi West 3.5 mph - N/A   Clear
7:15 AM 67.3 °F - 64.9 °F 92% 30.04 in 7.0 mi Calm Calm - N/A   Clear
7:35 AM 68.0 °F - 65.3 °F 91% 30.04 in 7.0 mi Calm Calm - N/A   Clear
7:55 AM 70.0 °F - 66.2 °F 88% 30.04 in 7.0 mi Calm Calm - N/A   Clear
8:15 AM 71.1 °F - 66.4 °F 85% 30.05 in 10.0 mi Calm Calm - N/A   Clear
8:35 AM 73.2 °F - 66.7 °F 80% 30.05 in 10.0 mi Calm Calm - N/A   Clear
8:55 AM 75.7 °F - 65.1 °F 69% 30.06 in 10.0 mi Calm Calm - N/A   Clear
9:15 AM 78.3 °F - 65.1 °F 64% 30.06 in 10.0 mi Calm Calm - N/A   Clear
9:35 AM 81.0 °F 82.6 °F 64.2 °F 57% 30.06 in 10.0 mi West 3.5 mph - N/A   Clear
9:55 AM 82.2 °F 83.5 °F 63.7 °F 53% 30.06 in 10.0 mi WSW 4.6 mph - N/A   Clear
10:15 AM 84.6 °F 85.0 °F 61.9 °F 46% 30.07 in 10.0 mi NW 4.6 mph - N/A   Clear
10:35 AM 86.2 °F 86.3 °F 61.5 °F 43% 30.07 in 10.0 mi West 5.8 mph - N/A   Clear
10:55 AM 87.3 °F 87.7 °F 62.2 °F 43% 30.07 in 10.0 mi West 9.2 mph - N/A   Clear
11:15 AM 87.8 °F 87.9 °F 61.5 °F 41% 30.07 in 10.0 mi NW 8.1 mph - N/A   Clear
11:35 AM 89.2 °F 89.0 °F 60.8 °F 38% 30.07 in 10.0 mi West 6.9 mph - N/A   Clear
11:55 AM 89.2 °F 89.0 °F 60.6 °F 38% 30.07 in 10.0 mi WNW 8.1 mph - N/A   Clear
12:15 PM 91.0 °F 90.5 °F 60.1 °F 35% 30.06 in 10.0 mi WNW 10.4 mph - N/A   Clear
12:35 PM 91.4 °F 90.4 °F 58.8 °F 33% 30.06 in 10.0 mi West 12.7 mph 17.3 mph N/A   Clear
12:55 PM 91.8 °F 90.6 °F 58.1 °F 32% 30.06 in 10.0 mi West 4.6 mph 17.3 mph N/A   Clear
1:15 PM 93.0 °F 92.0 °F 58.6 °F 31% 30.05 in 10.0 mi West 13.8 mph 19.6 mph N/A   Scattered Clouds
1:35 PM 92.7 °F 91.5 °F 57.9 °F 31% 30.05 in 10.0 mi West 13.8 mph - N/A   Scattered Clouds
1:55 PM 93.7 °F 92.3 °F 57.4 °F 29% 30.04 in 10.0 mi West 10.4 mph 18.4 mph N/A   Clear
2:15 PM 94.8 °F 93.8 °F 57.7 °F 29% 30.04 in 10.0 mi WSW 9.2 mph - N/A   Clear
2:35 PM 95.0 °F 93.7 °F 57.6 °F 28% 30.04 in 10.0 mi WSW 9.2 mph 17.3 mph N/A   Clear
2:55 PM 94.6 °F 93.2 °F 56.7 °F 28% 30.03 in 10.0 mi West 10.4 mph - N/A   Clear
3:15 PM 95.4 °F 93.8 °F 55.9 °F 27% 30.02 in 10.0 mi WSW 8.1 mph 19.6 mph N/A   Clear
3:35 PM 94.8 °F 93.4 °F 56.5 °F 28% 30.01 in 10.0 mi WSW 9.2 mph - N/A   Clear
3:55 PM 95.0 °F 93.4 °F 56.3 °F 27% 30.01 in 10.0 mi South 3.5 mph - N/A   Clear
4:15 PM 95.4 °F 93.8 °F 55.9 °F 27% 30.01 in 10.0 mi West 4.6 mph 18.4 mph N/A   Scattered Clouds
4:35 PM 96.6 °F 94.8 °F 55.4 °F 25% 30.01 in 10.0 mi WNW 10.4 mph - N/A   Clear
4:55 PM 95.5 °F 93.7 °F 55.2 °F 26% 30.01 in 10.0 mi WNW 9.2 mph - N/A   Clear
5:15 PM 96.8 °F 95.1 °F 55.6 °F 25% 30.00 in 10.0 mi NW 8.1 mph - N/A   Scattered Clouds
5:35 PM 94.6 °F 92.9 °F 55.8 °F 27% 30.00 in 10.0 mi Calm Calm - N/A   Scattered Clouds
5:55 PM 96.1 °F 94.5 °F 55.6 °F 26% 30.00 in 10.0 mi WNW 8.1 mph - N/A   Scattered Clouds
6:15 PM 95.4 °F 93.8 °F 56.1 °F 27% 30.01 in 10.0 mi WNW 8.1 mph - N/A   Clear
6:35 PM 95.4 °F 93.8 °F 56.3 °F 27% 30.01 in 10.0 mi WSW 4.6 mph - N/A   Clear
6:55 PM 93.2 °F 92.6 °F 59.4 °F 32% 30.01 in 10.0 mi WSW 6.9 mph - N/A   Scattered Clouds
7:15 PM 93.6 °F 93.1 °F 59.4 °F 32% 30.01 in 10.0 mi WSW 9.2 mph - N/A   Mostly Cloudy
7:35 PM 92.1 °F 92.1 °F 60.8 °F 35% 30.01 in 10.0 mi WSW 8.1 mph - N/A   Scattered Clouds
7:55 PM 90.9 °F 90.9 °F 61.2 °F 37% 30.01 in 10.0 mi WSW 3.5 mph - N/A   Clear
8:15 PM 88.5 °F 89.2 °F 62.8 °F 42% 30.01 in 10.0 mi Calm Calm - N/A   Clear
8:35 PM 84.2 °F 86.1 °F 65.3 °F 53% 30.01 in 10.0 mi Calm Calm - N/A   Clear
8:55 PM 83.3 °F 85.3 °F 65.8 °F 55% 30.01 in 10.0 mi Calm Calm - N/A   Clear
9:15 PM 81.9 °F 84.1 °F 66.2 °F 59% 30.02 in 10.0 mi Calm Calm - N/A   Clear
9:35 PM 79.9 °F - 66.2 °F 63% 30.03 in 10.0 mi Calm Calm - N/A   Clear
9:55 PM 78.6 °F - 66.7 °F 67% 30.04 in 10.0 mi Calm Calm - N/A   Clear
10:15 PM 79.0 °F - 67.1 °F 67% 30.04 in 10.0 mi Calm Calm - N/A   Clear
10:35 PM 78.3 °F - 65.7 °F 65% 30.04 in 10.0 mi Calm Calm - N/A   Clear
10:55 PM 76.6 °F - 67.5 °F 73% 30.04 in 10.0 mi Calm Calm - N/A   Clear
11:15 PM 77.7 °F - 66.9 °F 69% 30.05 in 10.0 mi Calm Calm - N/A   Clear
11:35 PM 77.0 °F - 66.9 °F 71% 30.05 in 10.0 mi Calm Calm - N/A   Clear
11:55 PM 76.6 °F - 67.3 °F 73% 30.05 in 10.0 mi Calm Calm - N/A   Clear